| time (UTC) | temp F | wind direction | speed MPH | gust MPH | rain 1hr in | rain 24hr in | rain mn in | humidity % | barometer mb |
| 20260831000530 | 86 | 270 | 0.0 | 0.0 | 0.00 | 0.00 | 0.00 | 61 | 1022.7 |
| 20260831000009 | 87 | 270 | 0.0 | 0.0 | 0.00 | 0.00 | 0.00 | 60 | 1022.7 |
| 20260830235731 | 87 | 270 | 0.0 | 0.0 | 0.00 | 0.00 | 0.00 | 60 | 1022.7 |
| 20260830234954 | 88 | 270 | 0.0 | 0.0 | 0.00 | 0.00 | 0.00 | 58 | 1022.7 |
| 20260830234417 | 88 | 270 | 0.0 | 2.0 | 0.00 | 0.00 | 0.00 | 58 | 1022.7 |
| 20260830233900 | 89 | 270 | 1.0 | 2.0 | 0.00 | 0.00 | 0.00 | 56 | 1022.6 |
| 20260830233400 | 89 | 270 | 1.0 | 3.0 | 0.00 | 0.00 | 0.00 | 55 | 1022.6 |
| 20260830232854 | 90 | 269 | 0.0 | 3.0 | 0.00 | 0.00 | 0.00 | 53 | 1022.6 |
| 20260830232621 | 91 | 252 | 0.0 | 2.0 | 0.00 | 0.00 | 0.00 | 52 | 1022.5 |
| 20260830231853 | 91 | 252 | 1.0 | 3.0 | 0.00 | 0.00 | 0.00 | 51 | 1022.5 |
| 20260830231600 | 91 | 252 | 1.0 | 3.0 | 0.00 | 0.00 | 0.00 | 52 | 1022.5 |
| 20260830230829 | 91 | 252 | 2.0 | 4.0 | 0.00 | 0.00 | 0.00 | 51 | 1022.6 |
| 20260830230331 | 91 | 252 | 2.0 | 4.0 | 0.00 | 0.00 | 0.00 | 51 | 1022.6 |
| 20260830230301 | 91 | 248 | 2.0 | 4.0 | 0.00 | 0.00 | 0.00 | 51 | 1022.6 |
| 20260830225549 | 92 | 250 | 2.0 | 4.0 | 0.00 | 0.00 | 0.00 | 50 | 1022.6 |
| 20260830224817 | 92 | 261 | 2.0 | 4.0 | 0.00 | 0.00 | 0.00 | 49 | 1022.6 |
| 20260830224311 | 92 | 254 | 2.0 | 4.0 | 0.00 | 0.00 | 0.00 | 50 | 1022.6 |
| 20260830223812 | 92 | 246 | 2.0 | 4.0 | 0.00 | 0.00 | 0.00 | 51 | 1022.6 |
| 20260830223259 | 92 | 217 | 2.0 | 4.0 | 0.00 | 0.00 | 0.00 | 49 | 1022.6 |
| 20260830222759 | 91 | 217 | 2.0 | 5.0 | 0.00 | 0.00 | 0.00 | 50 | 1022.6 |
| 20260830222252 | 91 | 212 | 2.0 | 5.0 | 0.00 | 0.00 | 0.00 | 51 | 1022.6 |
| 20260830222016 | 91 | 297 | 2.0 | 4.0 | 0.00 | 0.00 | 0.00 | 51 | 1022.6 |
| 20260830221252 | 91 | 219 | 2.0 | 5.0 | 0.00 | 0.00 | 0.00 | 52 | 1022.6 |
| 20260830221002 | 91 | 210 | 2.0 | 5.0 | 0.00 | 0.00 | 0.00 | 52 | 1022.5 |
| 20260830220239 | 92 | 249 | 2.0 | 5.0 | 0.00 | 0.00 | 0.00 | 50 | 1022.5 |
| 20260830215739 | 92 | 268 | 2.0 | 5.0 | 0.00 | 0.00 | 0.00 | 51 | 1022.5 |
| 20260830215240 | 91 | 219 | 2.0 | 5.0 | 0.00 | 0.00 | 0.00 | 53 | 1022.5 |
| 20260830214737 | 91 | 359 | 2.0 | 3.0 | 0.00 | 0.00 | 0.00 | 52 | 1022.5 |
| 20260830214459 | 91 | 207 | 2.0 | 3.0 | 0.00 | 0.00 | 0.00 | 52 | 1022.5 |
| 20260830213737 | 91 | 208 | 2.0 | 3.0 | 0.00 | 0.00 | 0.00 | 51 | 1022.6 |
| 20260830213240 | 91 | 247 | 2.0 | 3.0 | 0.00 | 0.00 | 0.00 | 52 | 1022.6 |
| 20260830212726 | 91 | 254 | 3.0 | 5.0 | 0.00 | 0.00 | 0.00 | 51 | 1022.7 |
| 20260830212215 | 91 | 211 | 3.0 | 5.0 | 0.00 | 0.00 | 0.00 | 52 | 1022.7 |
| 20260830211714 | 91 | 209 | 3.0 | 6.0 | 0.00 | 0.00 | 0.00 | 53 | 1022.7 |
| 20260830211214 | 91 | 207 | 3.0 | 6.0 | 0.00 | 0.00 | 0.00 | 52 | 1022.8 |
| 20260830210715 | 91 | 254 | 3.0 | 6.0 | 0.00 | 0.00 | 0.00 | 54 | 1022.8 |
| 20260830210212 | 91 | 226 | 3.0 | 6.0 | 0.00 | 0.00 | 0.00 | 55 | 1022.8 |
| 20260830205712 | 91 | 291 | 2.0 | 6.0 | 0.00 | 0.00 | 0.00 | 53 | 1022.9 |
| 20260830205440 | 90 | 257 | 2.0 | 5.0 | 0.00 | 0.00 | 0.00 | 52 | 1022.9 |
| 20260830204709 | 90 | 253 | 2.0 | 5.0 | 0.00 | 0.00 | 0.00 | 53 | 1022.9 |
| 20260830204209 | 90 | 253 | 2.0 | 5.0 | 0.00 | 0.00 | 0.00 | 53 | 1023.1 |
| 20260830203702 | 89 | 353 | 2.0 | 5.0 | 0.00 | 0.00 | 0.00 | 54 | 1023.1 |
| 20260830203422 | 89 | 211 | 2.0 | 4.0 | 0.00 | 0.00 | 0.00 | 55 | 1023.1 |
| 20260830202702 | 90 | 208 | 2.0 | 5.0 | 0.00 | 0.00 | 0.00 | 55 | 1023.3 |
| 20260830202642 | 90 | 265 | 2.0 | 5.0 | 0.00 | 0.00 | 0.00 | 53 | 1023.3 |
| 20260830201700 | 91 | 248 | 3.0 | 6.0 | 0.00 | 0.00 | 0.00 | 54 | 1023.3 |
| 20260830201426 | 91 | 222 | 3.0 | 11.0 | 0.00 | 0.00 | 0.00 | 55 | 1023.4 |
| 20260830200919 | 90 | 207 | 3.0 | 11.0 | 0.00 | 0.00 | 0.00 | 54 | 1023.4 |
| 20260830200159 | 90 | 184 | 3.0 | 5.0 | 0.00 | 0.00 | 0.00 | 57 | 1023.4 |
| 20260830195659 | 89 | 355 | 3.0 | 7.0 | 0.00 | 0.00 | 0.00 | 54 | 1023.4 |
| 20260830195427 | 89 | 327 | 3.0 | 7.0 | 0.00 | 0.00 | 0.00 | 55 | 1023.4 |
| 20260830194916 | 89 | 214 | 4.0 | 6.0 | 0.00 | 0.00 | 0.00 | 54 | 1023.4 |
| 20260830194157 | 89 | 248 | 4.0 | 6.0 | 0.00 | 0.00 | 0.00 | 57 | 1023.5 |
| 20260830193657 | 89 | 259 | 3.0 | 6.0 | 0.00 | 0.00 | 0.00 | 55 | 1023.5 |
| 20260830193155 | 89 | 214 | 3.0 | 6.0 | 0.00 | 0.00 | 0.00 | 53 | 1023.5 |
| 20260830192654 | 89 | 234 | 3.0 | 6.0 | 0.00 | 0.00 | 0.00 | 55 | 1023.7 |
| 20260830192155 | 89 | 206 | 3.0 | 6.0 | 0.00 | 0.00 | 0.00 | 57 | 1023.7 |
| 20260830191912 | 89 | 216 | 2.0 | 6.0 | 0.00 | 0.00 | 0.00 | 56 | 1023.7 |
| 20260830191154 | 89 | 300 | 2.0 | 4.0 | 0.00 | 0.00 | 0.00 | 56 | 1024.1 |
| 20260830190649 | 89 | 289 | 3.0 | 6.0 | 0.00 | 0.00 | 0.00 | 54 | 1024.1 |
| 20260830190149 | 88 | 190 | 3.0 | 6.0 | 0.00 | 0.00 | 0.00 | 59 | 1024.1 |
| 20260830185649 | 88 | 181 | 3.0 | 6.0 | 0.00 | 0.00 | 0.00 | 61 | 1024.4 |
| 20260830185146 | 88 | 219 | 3.0 | 6.0 | 0.00 | 0.00 | 0.00 | 60 | 1024.4 |
| 20260830184646 | 87 | 260 | 2.0 | 6.0 | 0.00 | 0.00 | 0.00 | 62 | 1024.4 |
| 20260830184146 | 88 | 269 | 2.0 | 6.0 | 0.00 | 0.00 | 0.00 | 59 | 1024.6 |
| 20260830183645 | 88 | 206 | 2.0 | 5.0 | 0.00 | 0.00 | 0.00 | 60 | 1024.6 |
| 20260830183145 | 87 | 186 | 2.0 | 6.0 | 0.00 | 0.00 | 0.00 | 60 | 1024.6 |
| 20260830182636 | 87 | 93 | 3.0 | 6.0 | 0.00 | 0.00 | 0.00 | 58 | 1024.8 |
| 20260830182401 | 87 | 238 | 3.0 | 5.0 | 0.00 | 0.00 | 0.00 | 61 | 1024.8 |
| 20260830181631 | 87 | 202 | 3.0 | 5.0 | 0.00 | 0.00 | 0.00 | 63 | 1024.8 |
| 20260830181131 | 87 | 290 | 3.0 | 6.0 | 0.00 | 0.00 | 0.00 | 61 | 1025.0 |
| 20260830180634 | 86 | 254 | 2.0 | 6.0 | 0.00 | 0.00 | 0.00 | 64 | 1025.0 |
| 20260830180132 | 86 | 252 | 2.0 | 5.0 | 0.00 | 0.00 | 0.00 | 67 | 1025.0 |
| 20260830175629 | 85 | 209 | 3.0 | 6.0 | 0.00 | 0.00 | 0.00 | 66 | 1025.2 |
| 20260830175129 | 85 | 350 | 3.0 | 6.0 | 0.00 | 0.00 | 0.00 | 64 | 1025.2 |
| 20260830174629 | 84 | 225 | 3.0 | 5.0 | 0.00 | 0.00 | 0.00 | 67 | 1025.2 |
| 20260830174130 | 84 | 197 | 3.0 | 5.0 | 0.00 | 0.00 | 0.00 | 66 | 1025.6 |
| 20260830173627 | 84 | 5 | 2.0 | 5.0 | 0.00 | 0.00 | 0.00 | 65 | 1025.6 |
| 20260830173127 | 84 | 11 | 2.0 | 4.0 | 0.00 | 0.00 | 0.00 | 65 | 1025.6 |
| 20260830172852 | 84 | 240 | 2.0 | 5.0 | 0.00 | 0.00 | 0.00 | 66 | 1025.8 |
| 20260830172125 | 84 | 5 | 2.0 | 5.0 | 0.00 | 0.00 | 0.00 | 66 | 1025.8 |
| 20260830171616 | 83 | 250 | 2.0 | 4.0 | 0.00 | 0.00 | 0.00 | 68 | 1025.8 |
| 20260830171337 | 83 | 71 | 2.0 | 4.0 | 0.00 | 0.00 | 0.00 | 69 | 1026.0 |
| 20260830170614 | 83 | 72 | 2.0 | 5.0 | 0.00 | 0.00 | 0.00 | 68 | 1026.0 |
| 20260830170110 | 83 | 72 | 2.0 | 5.0 | 0.00 | 0.00 | 0.00 | 69 | 1026.0 |
| 20260830165608 | 83 | 10 | 2.0 | 4.0 | 0.00 | 0.00 | 0.00 | 67 | 1026.1 |
| 20260830165109 | 83 | 336 | 2.0 | 4.0 | 0.00 | 0.00 | 0.00 | 69 | 1026.1 |
| 20260830164604 | 83 | 213 | 2.0 | 4.0 | 0.00 | 0.00 | 0.00 | 69 | 1026.1 |
| 20260830164059 | 83 | 269 | 2.0 | 4.0 | 0.00 | 0.00 | 0.00 | 71 | 1026.2 |
| 20260830163559 | 83 | 57 | 2.0 | 6.0 | 0.00 | 0.00 | 0.00 | 69 | 1026.2 |
| 20260830163059 | 83 | 323 | 3.0 | 6.0 | 0.00 | 0.00 | 0.00 | 68 | 1026.2 |
| 20260830162559 | 83 | 66 | 3.0 | 4.0 | 0.00 | 0.00 | 0.00 | 67 | 1026.3 |
| 20260830162531 | 82 | 241 | 3.0 | 2.0 | 0.00 | 0.00 | 0.00 | 71 | 1026.3 |
| 20260830161739 | 82 | 241 | 3.0 | 2.0 | 0.00 | 0.00 | 0.00 | 71 | 1026.3 |
| 20260830161219 | 82 | 241 | 3.0 | 6.0 | 0.00 | 0.00 | 0.00 | 71 | 1026.4 |
| 20260830160502 | 82 | 241 | 3.0 | 6.0 | 0.00 | 0.00 | 0.00 | 71 | 1026.4 |
| 20260830155947 | 82 | 213 | 2.0 | 7.0 | 0.00 | 0.00 | 0.00 | 71 | 1026.4 |
| 20260830155446 | 82 | 81 | 2.0 | 7.0 | 0.00 | 0.00 | 0.00 | 72 | 1026.5 |
| 20260830154944 | 81 | 158 | 2.0 | 5.0 | 0.00 | 0.00 | 0.00 | 72 | 1026.5 |
| 20260830154443 | 81 | 169 | 2.0 | 5.0 | 0.00 | 0.00 | 0.00 | 72 | 1026.5 |
| 20260830153929 | 81 | 346 | 2.0 | 5.0 | 0.00 | 0.00 | 0.00 | 75 | 1026.5 |
| 20260830153650 | 80 | 212 | 2.0 | 5.0 | 0.00 | 0.00 | 0.00 | 73 | 1026.5 |
| 20260830152925 | 80 | 356 | 2.0 | 4.0 | 0.00 | 0.00 | 0.00 | 74 | 1026.5 |
| 20260830152421 | 80 | 10 | 2.0 | 5.0 | 0.00 | 0.00 | 0.00 | 71 | 1026.5 |
| 20260830151914 | 80 | 203 | 3.0 | 5.0 | 0.00 | 0.00 | 0.00 | 72 | 1026.5 |
| 20260830151414 | 80 | 203 | 3.0 | 6.0 | 0.00 | 0.00 | 0.00 | 74 | 1026.5 |
| 20260830150914 | 79 | 202 | 2.0 | 6.0 | 0.00 | 0.00 | 0.00 | 74 | 1026.4 |
| 20260830150414 | 79 | 270 | 2.0 | 5.0 | 0.00 | 0.00 | 0.00 | 76 | 1026.4 |
| 20260830145914 | 79 | 202 | 2.0 | 4.0 | 0.00 | 0.00 | 0.00 | 75 | 1026.4 |
| 20260830145413 | 79 | 203 | 2.0 | 4.0 | 0.00 | 0.00 | 0.00 | 76 | 1026.2 |
| 20260830144909 | 78 | 191 | 2.0 | 4.0 | 0.00 | 0.00 | 0.00 | 78 | 1026.2 |
| 20260830144409 | 78 | 63 | 2.0 | 4.0 | 0.00 | 0.00 | 0.00 | 77 | 1026.2 |
| 20260830144127 | 78 | 73 | 2.0 | 4.0 | 0.00 | 0.00 | 0.00 | 78 | 1026.2 |
| 20260830143403 | 78 | 234 | 2.0 | 4.0 | 0.00 | 0.00 | 0.00 | 78 | 1026.2 |
| 20260830142902 | 78 | 95 | 2.0 | 4.0 | 0.00 | 0.00 | 0.00 | 78 | 1026.2 |
| 20260830142351 | 77 | 202 | 2.0 | 5.0 | 0.00 | 0.00 | 0.00 | 78 | 1026.3 |
| 20260830141850 | 77 | 64 | 2.0 | 5.0 | 0.00 | 0.00 | 0.00 | 80 | 1026.3 |
| 20260830141350 | 77 | 324 | 2.0 | 4.0 | 0.00 | 0.00 | 0.00 | 81 | 1026.3 |
| 20260830140850 | 77 | 53 | 2.0 | 4.0 | 0.00 | 0.00 | 0.00 | 80 | 1026.5 |
| 20260830140351 | 77 | 340 | 2.0 | 4.0 | 0.00 | 0.00 | 0.00 | 80 | 1026.5 |
| 20260830135850 | 77 | 68 | 2.0 | 4.0 | 0.00 | 0.00 | 0.00 | 81 | 1026.5 |
| 20260830135338 | 76 | 74 | 2.0 | 4.0 | 0.00 | 0.00 | 0.00 | 83 | 1026.5 |
| 20260830134835 | 76 | 70 | 2.0 | 4.0 | 0.00 | 0.00 | 0.00 | 82 | 1026.5 |
| 20260830134332 | 76 | 71 | 2.0 | 4.0 | 0.00 | 0.00 | 0.00 | 81 | 1026.5 |
| 20260830133820 | 75 | 72 | 2.0 | 2.0 | 0.00 | 0.00 | 0.00 | 84 | 1026.4 |
| 20260830133305 | 75 | 72 | 2.0 | 2.0 | 0.00 | 0.00 | 0.00 | 84 | 1026.4 |
| 20260830132759 | 75 | 72 | 2.0 | 4.0 | 0.00 | 0.00 | 0.00 | 84 | 1026.4 |
| 20260830132243 | 75 | 72 | 2.0 | 4.0 | 0.00 | 0.00 | 0.00 | 84 | 1026.4 |
| 20260830131743 | 74 | 73 | 2.0 | 4.0 | 0.00 | 0.00 | 0.00 | 85 | 1026.4 |
| 20260830131503 | 74 | 73 | 2.0 | 4.0 | 0.00 | 0.00 | 0.00 | 85 | 1026.4 |
| 20260830130740 | 74 | 74 | 2.0 | 4.0 | 0.00 | 0.00 | 0.00 | 87 | 1026.3 |
| 20260830130240 | 74 | 71 | 2.0 | 4.0 | 0.00 | 0.00 | 0.00 | 87 | 1026.3 |
| 20260830125739 | 72 | 70 | 2.0 | 3.0 | 0.00 | 0.00 | 0.00 | 90 | 1026.3 |
| 20260830125229 | 72 | 70 | 2.0 | 4.0 | 0.00 | 0.00 | 0.00 | 90 | 1026.3 |
| 20260830124722 | 72 | 70 | 2.0 | 5.0 | 0.00 | 0.00 | 0.00 | 90 | 1026.3 |
| 20260830124200 | 72 | 64 | 2.0 | 5.0 | 0.00 | 0.00 | 0.00 | 92 | 1026.1 |
| 20260830123700 | 71 | 64 | 2.0 | 4.0 | 0.00 | 0.00 | 0.00 | 92 | 1026.1 |
| 20260830123200 | 71 | 26 | 2.0 | 5.0 | 0.00 | 0.00 | 0.00 | 93 | 1026.1 |
| 20260830122703 | 71 | 1 | 2.0 | 5.0 | 0.00 | 0.00 | 0.00 | 93 | 1025.9 |
| 20260830122200 | 71 | 1 | 2.0 | 4.0 | 0.00 | 0.00 | 0.00 | 93 | 1025.9 |
| 20260830121645 | 70 | 51 | 2.0 | 4.0 | 0.00 | 0.00 | 0.00 | 93 | 1025.9 |
| 20260830121143 | 70 | 69 | 2.0 | 3.0 | 0.00 | 0.00 | 0.00 | 94 | 1025.7 |
| 20260830120642 | 70 | 69 | 2.0 | 3.0 | 0.00 | 0.00 | 0.00 | 94 | 1025.7 |
| 20260830120138 | 70 | 15 | 2.0 | 4.0 | 0.00 | 0.00 | 0.00 | 95 | 1025.7 |
| 20260830115633 | 70 | 10 | 2.0 | 4.0 | 0.00 | 0.00 | 0.00 | 95 | 1025.7 |
| 20260830115612 | 69 | 50 | 2.0 | 4.0 | 0.00 | 0.00 | 0.00 | 95 | 1025.7 |
| 20260830114625 | 69 | 319 | 2.0 | 4.0 | 0.00 | 0.00 | 0.00 | 95 | 1025.7 |
| 20260830114125 | 69 | 16 | 2.0 | 4.0 | 0.00 | 0.00 | 0.00 | 95 | 1025.4 |
| 20260830113625 | 69 | 2 | 2.0 | 4.0 | 0.00 | 0.00 | 0.00 | 95 | 1025.4 |
| 20260830113125 | 69 | 359 | 2.0 | 4.0 | 0.00 | 0.00 | 0.00 | 95 | 1025.4 |
| 20260830112625 | 69 | 11 | 2.0 | 4.0 | 0.00 | 0.00 | 0.00 | 95 | 1025.2 |
| 20260830112125 | 69 | 14 | 2.0 | 4.0 | 0.00 | 0.00 | 0.00 | 95 | 1025.2 |
| 20260830111853 | 69 | 20 | 3.0 | 4.0 | 0.00 | 0.00 | 0.00 | 95 | 1025.2 |
| 20260830111125 | 69 | 15 | 3.0 | 5.0 | 0.00 | 0.00 | 0.00 | 95 | 1025.2 |
| 20260830110623 | 69 | 11 | 3.0 | 5.0 | 0.00 | 0.00 | 0.00 | 95 | 1025.2 |
| 20260830110120 | 69 | 12 | 3.0 | 5.0 | 0.00 | 0.00 | 0.00 | 95 | 1025.2 |
| 20260830105620 | 69 | 11 | 2.0 | 5.0 | 0.00 | 0.00 | 0.00 | 95 | 1025.1 |
| 20260830105120 | 70 | 354 | 2.0 | 4.0 | 0.00 | 0.00 | 0.00 | 95 | 1025.1 |
| 20260830104617 | 70 | 13 | 2.0 | 4.0 | 0.00 | 0.00 | 0.00 | 95 | 1025.1 |
| 20260830104309 | 70 | 7 | 3.0 | 5.0 | 0.00 | 0.00 | 0.00 | 95 | 1024.9 |
| 20260830103535 | 70 | 351 | 3.0 | 5.0 | 0.00 | 0.00 | 0.00 | 95 | 1024.9 |
| 20260830103032 | 70 | 12 | 4.0 | 5.0 | 0.00 | 0.00 | 0.00 | 95 | 1024.9 |
| 20260830102533 | 70 | 15 | 4.0 | 6.0 | 0.00 | 0.00 | 0.00 | 95 | 1024.8 |
| 20260830102025 | 70 | 355 | 4.0 | 6.0 | 0.00 | 0.00 | 0.00 | 95 | 1024.8 |
| 20260830101520 | 70 | 7 | 4.0 | 5.0 | 0.00 | 0.00 | 0.00 | 95 | 1024.8 |
| 20260830101226 | 70 | 13 | 4.0 | 5.0 | 0.00 | 0.00 | 0.00 | 95 | 1024.8 |
| 20260830101109 | 70 | 12 | 4.0 | 5.0 | 0.00 | 0.00 | 0.00 | 95 | 1024.8 |
| 20260830100021 | 70 | 8 | 4.0 | 5.0 | 0.00 | 0.00 | 0.00 | 95 | 1024.8 |
| 20260830095520 | 70 | 12 | 4.0 | 6.0 | 0.00 | 0.00 | 0.00 | 95 | 1024.8 |
| 20260830095019 | 70 | 9 | 3.0 | 6.0 | 0.00 | 0.00 | 0.00 | 95 | 1024.8 |
| 20260830094720 | 70 | 11 | 2.0 | 5.0 | 0.00 | 0.00 | 0.00 | 95 | 1024.8 |
| 20260830094606 | 70 | 10 | 3.0 | 6.0 | 0.00 | 0.00 | 0.00 | 95 | 1024.8 |
| 20260830093521 | 70 | 22 | 2.0 | 5.0 | 0.00 | 0.00 | 0.00 | 95 | 1024.8 |
| 20260830093020 | 70 | 18 | 2.0 | 5.0 | 0.00 | 0.00 | 0.00 | 95 | 1024.8 |
| 20260830092520 | 70 | 20 | 2.0 | 3.0 | 0.00 | 0.00 | 0.00 | 95 | 1024.8 |
| 20260830092023 | 70 | 20 | 4.0 | 4.0 | 0.00 | 0.00 | 0.00 | 95 | 1024.8 |
| 20260830091742 | 70 | 20 | 4.0 | 6.0 | 0.00 | 0.00 | 0.00 | 95 | 1024.8 |
| 20260830091005 | 70 | 13 | 4.0 | 6.0 | 0.00 | 0.00 | 0.00 | 95 | 1024.9 |
| 20260830090505 | 70 | 4 | 4.0 | 6.0 | 0.00 | 0.00 | 0.00 | 95 | 1024.9 |
| 20260830090222 | 70 | 5 | 4.0 | 6.0 | 0.00 | 0.00 | 0.00 | 95 | 1024.9 |
| 20260830085724 | 70 | 4 | 4.0 | 5.0 | 0.00 | 0.00 | 0.00 | 95 | 1024.9 |
| 20260830085005 | 70 | 9 | 3.0 | 6.0 | 0.00 | 0.00 | 0.00 | 95 | 1024.9 |
| 20260830084506 | 70 | 5 | 3.0 | 6.0 | 0.00 | 0.00 | 0.00 | 95 | 1024.9 |
| 20260830084005 | 70 | 354 | 3.0 | 5.0 | 0.00 | 0.00 | 0.00 | 95 | 1024.9 |
| 20260830083505 | 70 | 323 | 3.0 | 5.0 | 0.00 | 0.00 | 0.00 | 95 | 1024.9 |
| 20260830083005 | 70 | 17 | 4.0 | 5.0 | 0.00 | 0.00 | 0.00 | 95 | 1024.9 |
| 20260830082505 | 71 | 16 | 4.0 | 6.0 | 0.00 | 0.00 | 0.00 | 95 | 1024.8 |
| 20260830082005 | 71 | 9 | 4.0 | 6.0 | 0.00 | 0.00 | 0.00 | 95 | 1024.8 |
| 20260830081944 | 71 | 19 | 4.0 | 6.0 | 0.00 | 0.00 | 0.00 | 94 | 1024.8 |
| 20260830081005 | 71 | 23 | 3.0 | 5.0 | 0.00 | 0.00 | 0.00 | 94 | 1024.8 |
| 20260830080505 | 71 | 358 | 3.0 | 5.0 | 0.00 | 0.00 | 0.00 | 94 | 1024.8 |
| 20260830080005 | 71 | 15 | 2.0 | 5.0 | 0.00 | 0.00 | 0.00 | 94 | 1024.8 |
| 20260830075505 | 71 | 8 | 2.0 | 5.0 | 0.00 | 0.00 | 0.00 | 94 | 1024.7 |
| 20260830075005 | 71 | 11 | 2.0 | 4.0 | 0.00 | 0.00 | 0.00 | 94 | 1024.7 |
| 20260830074725 | 71 | 16 | 2.0 | 4.0 | 0.00 | 0.00 | 0.00 | 93 | 1024.7 |
| 20260830073959 | 71 | 16 | 1.0 | 4.0 | 0.00 | 0.00 | 0.00 | 93 | 1024.7 |
| 20260830073926 | 71 | 16 | 1.0 | 4.0 | 0.00 | 0.00 | 0.00 | 93 | 1024.7 |
| 20260830072950 | 71 | 346 | 4.0 | 4.0 | 0.00 | 0.00 | 0.00 | 92 | 1024.7 |
| 20260830072659 | 71 | 346 | 4.0 | 5.0 | 0.00 | 0.00 | 0.00 | 92 | 1024.6 |
| 20260830072159 | 71 | 7 | 4.0 | 7.0 | 0.00 | 0.00 | 0.00 | 91 | 1024.6 |
| 20260830071430 | 72 | 11 | 4.0 | 7.0 | 0.00 | 0.00 | 0.00 | 91 | 1024.6 |
| 20260830070929 | 72 | 6 | 5.0 | 6.0 | 0.00 | 0.00 | 0.00 | 90 | 1024.6 |
| 20260830070430 | 72 | 17 | 5.0 | 7.0 | 0.00 | 0.00 | 0.00 | 89 | 1024.6 |
| 20260830065930 | 72 | 0 | 4.0 | 7.0 | 0.00 | 0.00 | 0.00 | 89 | 1024.6 |
| 20260830065433 | 73 | 3 | 4.0 | 7.0 | 0.00 | 0.00 | 0.00 | 89 | 1024.7 |
| 20260830064927 | 73 | 4 | 4.0 | 6.0 | 0.00 | 0.00 | 0.00 | 88 | 1024.7 |
| 20260830064427 | 73 | 343 | 4.0 | 6.0 | 0.00 | 0.00 | 0.00 | 87 | 1024.7 |
| 20260830063928 | 73 | 12 | 4.0 | 6.0 | 0.00 | 0.00 | 0.00 | 87 | 1024.7 |
| 20260830063425 | 73 | 6 | 4.0 | 6.0 | 0.00 | 0.00 | 0.00 | 86 | 1024.7 |
| 20260830062920 | 73 | 7 | 4.0 | 6.0 | 0.00 | 0.00 | 0.00 | 86 | 1024.7 |
| 20260830062644 | 74 | 4 | 4.0 | 6.0 | 0.00 | 0.00 | 0.00 | 86 | 1024.7 |
| 20260830061920 | 74 | 7 | 4.0 | 7.0 | 0.00 | 0.00 | 0.00 | 85 | 1024.7 |
| 20260830061413 | 74 | 9 | 4.0 | 6.0 | 0.00 | 0.00 | 0.00 | 85 | 1024.7 |
| 20260830060912 | 74 | 13 | 3.0 | 6.0 | 0.00 | 0.00 | 0.00 | 84 | 1024.8 |
| 20260830060412 | 74 | 342 | 3.0 | 6.0 | 0.00 | 0.00 | 0.00 | 83 | 1024.8 |
| 20260830060127 | 75 | 2 | 2.0 | 5.0 | 0.00 | 0.00 | 0.00 | 82 | 1024.8 |
| 20260830055629 | 76 | 73 | 1.0 | 2.0 | 0.00 | 0.00 | 0.00 | 77 | 1024.8 |
| 20260830054900 | 76 | 73 | 1.0 | 2.0 | 0.00 | 0.00 | 0.00 | 77 | 1024.8 |
| 20260830054608 | 76 | 73 | 1.0 | 3.0 | 0.00 | 0.00 | 0.00 | 77 | 1024.8 |
| 20260830053819 | 76 | 73 | 1.0 | 3.0 | 0.00 | 0.00 | 0.00 | 77 | 1024.8 |
| 20260830053306 | 76 | 74 | 1.0 | 3.0 | 0.00 | 0.00 | 0.00 | 77 | 1024.8 |
| 20260830052805 | 76 | 73 | 2.0 | 3.0 | 0.00 | 0.00 | 0.00 | 76 | 1024.8 |
| 20260830052306 | 76 | 73 | 2.0 | 4.0 | 0.00 | 0.00 | 0.00 | 76 | 1024.8 |
| 20260830051805 | 76 | 73 | 2.0 | 4.0 | 0.00 | 0.00 | 0.00 | 76 | 1024.8 |
| 20260830051305 | 76 | 70 | 2.0 | 4.0 | 0.00 | 0.00 | 0.00 | 76 | 1024.8 |
| 20260830050803 | 77 | 61 | 1.0 | 2.0 | 0.00 | 0.00 | 0.00 | 74 | 1025.1 |
| 20260830050251 | 77 | 61 | 1.0 | 3.0 | 0.00 | 0.00 | 0.00 | 74 | 1025.1 |
| 20260830045745 | 77 | 61 | 1.0 | 3.0 | 0.00 | 0.00 | 0.00 | 74 | 1025.1 |
| 20260830045242 | 77 | 60 | 1.0 | 3.0 | 0.00 | 0.00 | 0.00 | 74 | 1025.1 |
| 20260830044740 | 77 | 45 | 1.0 | 3.0 | 0.00 | 0.00 | 0.00 | 74 | 1025.1 |
| 20260830044504 | 77 | 45 | 1.0 | 3.0 | 0.00 | 0.00 | 0.00 | 73 | 1025.1 |
| 20260830043723 | 78 | 45 | 1.0 | 3.0 | 0.00 | 0.00 | 0.00 | 72 | 1025.1 |
| 20260830043217 | 78 | 32 | 1.0 | 2.0 | 0.00 | 0.00 | 0.00 | 72 | 1025.1 |
| 20260830042716 | 78 | 32 | 1.0 | 3.0 | 0.00 | 0.00 | 0.00 | 72 | 1025.0 |
| 20260830042436 | 78 | 10 | 1.0 | 4.0 | 0.00 | 0.00 | 0.00 | 71 | 1025.0 |
| 20260830041157 | 78 | 15 | 0.0 | 4.0 | 0.00 | 0.00 | 0.00 | 71 | 1025.0 |
| 20260830040908 | 78 | 17 | 1.0 | 1.0 | 0.00 | 0.00 | 0.00 | 71 | 1025.0 |
| 20260830040347 | 78 | 17 | 1.0 | 3.0 | 0.00 | 0.00 | 0.00 | 71 | 1025.0 |
| 20260830035602 | 78 | 17 | 1.0 | 3.0 | 0.00 | 0.00 | 0.00 | 71 | 1024.9 |
| 20260830035050 | 78 | 36 | 0.0 | 3.0 | 0.00 | 0.00 | 0.00 | 71 | 1024.9 |
| 20260830034550 | 78 | 10 | 0.0 | 3.0 | 0.00 | 0.00 | 0.00 | 70 | 1024.9 |
| 20260830034038 | 78 | 10 | 2.0 | 3.0 | 0.00 | 0.00 | 0.00 | 70 | 1024.9 |
| 20260830033759 | 78 | 10 | 2.0 | 4.0 | 0.00 | 0.00 | 0.00 | 70 | 1024.9 |
| 20260830033033 | 78 | 10 | 2.0 | 4.0 | 0.00 | 0.00 | 0.00 | 70 | 1024.9 |
| 20260830032531 | 78 | 55 | 2.0 | 4.0 | 0.00 | 0.00 | 0.00 | 70 | 1024.7 |
| 20260830032029 | 78 | 60 | 2.0 | 4.0 | 0.00 | 0.00 | 0.00 | 70 | 1024.7 |
| 20260830031529 | 78 | 60 | 2.0 | 4.0 | 0.00 | 0.00 | 0.00 | 69 | 1024.7 |
| 20260830031022 | 78 | 0 | 2.0 | 4.0 | 0.00 | 0.00 | 0.00 | 69 | 1024.7 |
| 20260830030509 | 78 | 332 | 2.0 | 4.0 | 0.00 | 0.00 | 0.00 | 69 | 1024.7 |
| 20260830030008 | 78 | 34 | 1.0 | 4.0 | 0.00 | 0.00 | 0.00 | 69 | 1024.7 |
| 20260830025508 | 78 | 71 | 1.0 | 3.0 | 0.00 | 0.00 | 0.00 | 71 | 1024.7 |
| 20260830025229 | 78 | 71 | 0.0 | 3.0 | 0.00 | 0.00 | 0.00 | 70 | 1024.7 |
| 20260830024504 | 78 | 63 | 0.0 | 3.0 | 0.00 | 0.00 | 0.00 | 73 | 1024.7 |
| 20260830023950 | 78 | 63 | 2.0 | 3.0 | 0.00 | 0.00 | 0.00 | 72 | 1024.5 |
| 20260830023448 | 78 | 63 | 2.0 | 3.0 | 0.00 | 0.00 | 0.00 | 71 | 1024.5 |
| 20260830022926 | 78 | 62 | 1.0 | 3.0 | 0.00 | 0.00 | 0.00 | 72 | 1024.5 |
| 20260830022425 | 78 | 61 | 1.0 | 3.0 | 0.00 | 0.00 | 0.00 | 73 | 1024.4 |
| 20260830021908 | 78 | 61 | 0.0 | 3.0 | 0.00 | 0.00 | 0.00 | 72 | 1024.4 |
| 20260830021627 | 78 | 149 | 0.0 | 2.0 | 0.00 | 0.00 | 0.00 | 70 | 1024.4 |
| 20260830021125 | 78 | 148 | 0.0 | 2.0 | 0.00 | 0.00 | 0.00 | 71 | 1024.3 |
| 20260830020404 | 78 | 94 | 0.0 | 2.0 | 0.00 | 0.00 | 0.00 | 71 | 1024.3 |
| 20260830015902 | 78 | 58 | 2.0 | 3.0 | 0.00 | 0.00 | 0.00 | 69 | 1024.3 |
| 20260830015402 | 79 | 58 | 2.0 | 3.0 | 0.00 | 0.00 | 0.00 | 70 | 1024.1 |
| 20260830015121 | 79 | 55 | 1.0 | 3.0 | 0.00 | 0.00 | 0.00 | 69 | 1024.1 |
| 20260830014837 | 79 | 55 | 1.0 | 3.0 | 0.00 | 0.00 | 0.00 | 70 | 1024.1 |
| 20260830013849 | 79 | 55 | 2.0 | 3.0 | 0.00 | 0.00 | 0.00 | 71 | 1023.7 |
| 20260830013342 | 79 | 54 | 2.0 | 3.0 | 0.00 | 0.00 | 0.00 | 67 | 1023.7 |
| 20260830012825 | 79 | 2 | 2.0 | 3.0 | 0.00 | 0.00 | 0.00 | 69 | 1023.7 |
| 20260830012325 | 79 | 1 | 2.0 | 3.0 | 0.00 | 0.00 | 0.00 | 70 | 1023.5 |
| 20260830011825 | 79 | 1 | 2.0 | 4.0 | 0.00 | 0.00 | 0.00 | 71 | 1023.5 |
| 20260830011547 | 79 | 1 | 2.0 | 4.0 | 0.00 | 0.00 | 0.00 | 69 | 1023.5 |
| 20260830011030 | 79 | 53 | 2.0 | 3.0 | 0.00 | 0.00 | 0.00 | 69 | 1023.1 |
| 20260830010315 | 79 | 50 | 2.0 | 3.0 | 0.00 | 0.00 | 0.00 | 68 | 1023.1 |
| 20260830005815 | 79 | 50 | 2.0 | 3.0 | 0.00 | 0.00 | 0.00 | 71 | 1023.1 |
| 20260830005314 | 79 | 15 | 2.0 | 2.0 | 0.00 | 0.00 | 0.00 | 71 | 1022.9 |
| 20260830004814 | 80 | 213 | 1.0 | 2.0 | 0.00 | 0.00 | 0.00 | 68 | 1022.9 |
| 20260830004242 | 80 | 213 | 1.0 | 2.0 | 0.00 | 0.00 | 0.00 | 68 | 1022.9 |
| 20260830003703 | 80 | 213 | 1.0 | 2.0 | 0.00 | 0.00 | 0.00 | 68 | 1022.9 |
| 20260830003416 | 80 | 213 | 1.0 | 3.0 | 0.00 | 0.00 | 0.00 | 69 | 1022.9 |
| 20260830002647 | 80 | 213 | 1.0 | 3.0 | 0.00 | 0.00 | 0.00 | 68 | 1022.9 |
| 20260830002140 | 81 | 207 | 1.0 | 3.0 | 0.00 | 0.00 | 0.00 | 67 | 1022.9 |
| 20260830001621 | 81 | 207 | 0.0 | 3.0 | 0.00 | 0.00 | 0.00 | 66 | 1022.9 |
| 20260830001112 | 81 | 207 | 0.0 | 1.0 | 0.00 | 0.00 | 0.00 | 66 | 1022.9 |